Weather History for Silver City, NM

Change the Weather History Date:

Thursday, January 10, 2013

  Actual Average (KDMN) Record (KDMN)
Temperature  
Mean Temperature 40 °F 41 °F  
Max Temperature 55 °F 56 °F 73 °F (1948)
Min Temperature 24 °F 26 °F 6 °F (1964)
Degree Days  
Heating Degree Days 26    
Moisture  
Dew Point 16 °F    
Average Humidity 35    
Maximum Humidity 55    
Minimum Humidity 21    
Precipitation  
Precipitation 0.00 in 0.01 in 0.25 in (1962)
Month to date precipitation 0.17  
Year to date precipitation 0.17  
Sea Level Pressure  
Sea Level Pressure 30.01 in    
Wind  
Wind Speed 10 mph (WSW)    
Max Wind Speed 17 mph    
Max Gust Speed 23 mph    
Visibility 10 miles    
Events      
T = Trace of Precipitation, MM = Missing Value Source: NWS Daily Summary

Daily Weather History Graph

Daily Weather History Graph

Search for Another Location

Airport:

Trip Planner

Search our weather history database for the weather conditions in past years. The results will help you decide how hot, cold, wet, or windy it might be!

Date:

Astronomy

Jan. 10, 2013 Rise Set
Actual Time 7:15 AM MST 5:25 PM MST
Civil Twilight 6:48 AM MST 5:52 PM MST
Nautical Twilight 6:18 AM MST 6:22 PM MST
Astronomical Twilight 5:48 AM MST 6:52 PM MST
Moon 5:58 AM MST (1/10) 4:35 PM MST (1/10)
Length of Visible Light 11h 03m
Length of Day
10h 10m
Waning Crescent, 2% of the Moon is Illuminated
Jan 10
Waning Crescent
Jan 11
New
Jan 18
First Quarter
Jan 26
Full
Feb 3
Last Quarter

Hourly Weather History & Observations

Time (MST) Temp. Windchill Dew Point Humidity Pressure Visibility Wind Dir Wind Speed Gust Speed Precip Events Conditions
1:15 AM 28.4 °F 19.7 °F 10.4 °F 47% 30.13 in 10.0 mi NW 9.2 mph - N/A   Clear
1:35 AM 24.8 °F 15.3 °F 10.4 °F 54% 30.13 in 10.0 mi NNW 9.2 mph - N/A   Clear
1:55 AM 28.4 °F 19.1 °F 10.4 °F 47% 30.13 in 10.0 mi NW 10.4 mph - N/A   Clear
2:15 AM 32.0 °F 23.0 °F 10.4 °F 41% 30.12 in 10.0 mi NNW 11.5 mph - N/A   Clear
2:55 AM 28.4 °F 19.7 °F 10.4 °F 47% 30.11 in 10.0 mi NNW 9.2 mph - N/A   Clear
4:35 AM 28.4 °F 21.2 °F 10.4 °F 47% 30.09 in 10.0 mi WNW 6.9 mph - N/A   Clear
4:55 AM 28.4 °F 16.6 °F 12.2 °F 51% 30.08 in 10.0 mi NW 16.1 mph - N/A   Clear
5:15 AM 32.0 °F 21.6 °F 12.2 °F 44% 30.07 in 10.0 mi NW 15.0 mph - N/A   Clear
5:55 AM 26.6 °F 18.2 °F 10.4 °F 51% 30.07 in 10.0 mi NNW 8.1 mph - N/A   Clear
6:15 AM 28.4 °F 18.5 °F 10.4 °F 47% 30.08 in 10.0 mi NNW 11.5 mph - N/A   Clear
6:35 AM 26.6 °F 17.5 °F 10.4 °F 51% 30.08 in 10.0 mi NNW 9.2 mph - N/A   Clear
6:55 AM 26.6 °F 16.8 °F 10.4 °F 51% 30.08 in 10.0 mi NNW 10.4 mph - N/A   Clear
7:15 AM 26.6 °F 17.5 °F 12.2 °F 55% 30.08 in 10.0 mi North 9.2 mph - N/A   Clear
7:35 AM 26.6 °F 17.5 °F 10.4 °F 51% 30.08 in 10.0 mi North 9.2 mph - N/A   Clear
8:15 AM 33.8 °F 27.0 °F 14.0 °F 44% 30.09 in 10.0 mi North 8.1 mph - N/A   Clear
8:55 AM 41.0 °F 36.4 °F 14.0 °F 33% 30.10 in 10.0 mi NNW 6.9 mph - N/A   Clear
9:15 AM 44.6 °F 41.4 °F 14.0 °F 29% 30.11 in 10.0 mi NNW 5.8 mph - N/A   Clear
9:35 AM 48.2 °F - 14.0 °F 25% 30.10 in 10.0 mi Calm Calm - N/A   Clear
9:55 AM 48.2 °F - 14.0 °F 25% 30.10 in 10.0 mi West 4.6 mph - N/A   Clear
10:15 AM 50.0 °F - 12.2 °F 22% 30.10 in 10.0 mi WSW 5.8 mph - N/A   Clear
10:35 AM 50.0 °F - 14.0 °F 24% 30.09 in 10.0 mi WSW 4.6 mph - N/A   Clear
10:55 AM 50.0 °F - 15.8 °F 26% 30.07 in 10.0 mi SW 9.2 mph - N/A   Clear
11:15 AM 50.0 °F - 17.6 °F 28% 30.07 in 10.0 mi SSW 10.4 mph - N/A   Clear
11:35 AM 50.0 °F - 17.6 °F 28% 30.05 in 10.0 mi South 11.5 mph - N/A   Clear
11:55 AM 48.2 °F - 19.4 °F 32% 30.04 in 10.0 mi South 10.4 mph - N/A   Clear
12:15 PM 50.0 °F - 19.4 °F 30% 30.03 in 10.0 mi SSW 10.4 mph - N/A   Clear
12:35 PM 50.0 °F - 19.4 °F 30% 30.01 in 10.0 mi SSW 11.5 mph 16.1 mph N/A   Clear
12:55 PM 53.6 °F - 15.8 °F 22% 29.99 in 10.0 mi SW 12.7 mph 18.4 mph N/A   Clear
1:15 PM 51.8 °F - 19.4 °F 28% 29.98 in 10.0 mi SSW 12.7 mph - N/A   Clear
1:35 PM 53.6 °F - 17.6 °F 24% 29.98 in 10.0 mi SSW 10.4 mph - N/A   Clear
1:55 PM 55.4 °F - 15.8 °F 21% 29.98 in 10.0 mi SSW 11.5 mph 16.1 mph N/A   Clear
2:15 PM 53.6 °F - 17.6 °F 24% 29.97 in 10.0 mi SSW 15.0 mph 20.7 mph N/A   Clear
2:35 PM 53.6 °F - 17.6 °F 24% 29.97 in 10.0 mi SW 12.7 mph 16.1 mph N/A   Clear
2:55 PM 53.6 °F - 19.4 °F 26% 29.97 in 10.0 mi SW 10.4 mph - N/A   Clear
3:15 PM 53.6 °F - 19.4 °F 26% 29.96 in 10.0 mi SW 12.7 mph 18.4 mph N/A   Clear
3:35 PM 53.6 °F - 19.4 °F 26% 29.95 in 10.0 mi SSW 11.5 mph 17.3 mph N/A   Clear
3:55 PM 53.6 °F - 23.0 °F 30% 29.94 in 10.0 mi SW 11.5 mph - N/A   Clear
4:15 PM 53.6 °F - 23.0 °F 30% 29.94 in 10.0 mi SSW 6.9 mph - N/A   Clear
4:35 PM 55.4 °F - 19.4 °F 25% 29.94 in 10.0 mi SSW 12.7 mph - N/A   Clear
4:55 PM 53.6 °F - 17.6 °F 24% 29.93 in 10.0 mi SSW 12.7 mph - N/A   Clear
5:15 PM 51.8 °F - 19.4 °F 28% 29.94 in 10.0 mi SW 8.1 mph - N/A   Clear
5:35 PM 50.0 °F - 19.4 °F 30% 29.93 in 10.0 mi SW 9.2 mph - N/A   Clear
5:55 PM 48.2 °F - 19.4 °F 32% 29.94 in 10.0 mi WSW 9.2 mph - N/A   Clear
6:15 PM 46.4 °F 41.5 °F 19.4 °F 34% 29.94 in 10.0 mi WSW 10.4 mph - N/A   Clear
6:35 PM 46.4 °F 42.9 °F 19.4 °F 34% 29.95 in 10.0 mi WSW 6.9 mph - N/A   Clear
6:55 PM 46.4 °F 43.5 °F 19.4 °F 34% 29.94 in 10.0 mi WSW 5.8 mph - N/A   Clear
7:35 PM 46.4 °F 42.4 °F 21.2 °F 37% 29.93 in 10.0 mi SW 8.1 mph - N/A   Clear
7:55 PM 46.4 °F 41.5 °F 21.2 °F 37% 29.93 in 10.0 mi SSW 10.4 mph 16.1 mph N/A   Clear
8:15 PM 46.4 °F 43.5 °F 21.2 °F 37% 29.92 in 10.0 mi SW 5.8 mph - N/A   Clear
8:35 PM 46.4 °F 41.5 °F 21.2 °F 37% 29.91 in 10.0 mi South 10.4 mph - N/A   Clear
9:35 PM 46.4 °F 42.4 °F 21.2 °F 37% 29.89 in 10.0 mi SE 8.1 mph - N/A   Clear
10:35 PM 46.4 °F 40.7 °F 19.4 °F 34% 29.89 in 10.0 mi SW 12.7 mph - N/A   Clear
10:55 PM 46.4 °F 39.5 °F 19.4 °F 34% 29.88 in 10.0 mi SW 17.3 mph 21.9 mph N/A   Clear
11:15 PM 46.4 °F 39.8 °F 19.4 °F 34% 29.87 in 10.0 mi SW 16.1 mph 23.0 mph N/A   Mostly Cloudy
11:35 PM 46.4 °F 39.8 °F 19.4 °F 34% 29.86 in 10.0 mi SW 16.1 mph 21.9 mph N/A   Scattered Clouds
11:55 PM 46.4 °F 40.1 °F 19.4 °F 34% 29.86 in 10.0 mi SW 15.0 mph 23.0 mph N/A   Clear